SUPERBIRD 8

Last updated on Nov. 15, 2019, 4:20 a.m. UTC

1 43271U 18033A   19318.49553531 -.00000078  00000-0  00000+0 0  9994
2 43271   0.0100 235.8697 0001528  34.4829 123.3725  1.00271335  5927
UTC
Height (km)
Latitude
Longitude
Inclination
Orbital Period
UTC large
Height (km)
Speed (km/s)
/
Latitude / Longitude
Inclination (degrees)
Orbital Period (minutes)
Azimuth
Elevation
Range (km)
Doppler Factor
iOS Compass Heading
iOS Angle

Next 30 passes for location: Hong Kong

Rise time Rise Azimuth (degrees) Set time Set Azimuth (degrees) Duration Max altitude (degrees)

No matching passes for this satellites